User: anonymous   Login
Location: *
(43.9900°N, 3.4811°E)
Time: 09:17:01
(UTC+00:00)
Language:

Aureole 3 Rocket - Orbit

View from above orbital plane
View from above orbital plane
View from above satellite
View from above satellite

Ground track
Ground track

The orbit data is extracted from the following two-line orbital elements,

1 12849U 81094B   19288.93911680 +.00000254 +00000-0 +23139-4 0  9994
2 12849 082.4939 233.6381 0900232 286.8004 063.6354 13.50573886856766
Epoch (UTC): 15 October 2019 22:32:19
Eccentricity: 0.0900232
inclination: 82.4939°
perigee height: 399 km
apogee height: 1740 km
right ascension of ascending node: 233.6381°
argument of perigee: 286.8004°
revolutions per day: 13.50573886
mean anomaly at epoch: 63.6354°
orbit number at epoch: 85676

The dashed part of the orbit path shows where the satellite is in the earth's shadow,  

DLR